Skip Page Navigation
NASA JPL Caltech
NASA Logo - Jet Propulsion Laboratory + View the NASA Portal
+ Center for Near-Earth Object Studies
JPL Home Earth Solar System Stars & Galaxies Technology
JPL Solar System Dynamics
BODIES ORBITS EPHEMERIDES TOOLS PHYSICAL DATA DISCOVERY FAQ SITE MAP
JPL Small-Body Database Browser
Search: [ help ]  
20862 Jenngoedhart (2000 VY34)
Classification: Main-belt Asteroid          SPK-ID: 2020862
Ephemeris | Orbit Diagram | Orbital Elements | Mission Design | Physical Parameters | Discovery Circumstances | Close-Approach Data ]

[ hide orbit diagram ]

For accurate long-term ephemerides, please instead use our Horizons system.This orbit viewer was implemented using two-body methods, and hence should not be used for determining accurate long-term trajectories (over several years or decades) or planetary encounter circumstances.


[ revert to old Java-based viewer ]

Orbital Elements at Epoch 2459000.5 (2020-May-31.0) TDB
Reference: JPL 30 (heliocentric ecliptic J2000)
 Element Value Uncertainty (1-sigma)   Units 
e .1263993518579333 3.6115e-08  
a 2.237582277518921 6.7052e-09 au
q 1.954753327911731 8.1324e-08 au
i 5.076476452463984 3.2446e-06 deg
node 223.6673784238976 4.5261e-05 deg
peri 286.2520902265185 4.7174e-05 deg
M 232.9356908137697 1.2909e-05 deg
tp 2459432.007179683519
(2021-Aug-05.50717968)
4.4106e-05 TDB
period 1222.550893173242
3.35
5.4953e-06
1.505e-08
d
yr
n .2944662688565768 1.3236e-09 deg/d
Q 2.520411227126111 7.5527e-09 au
  Orbit Determination Parameters
   # obs. used (total)      2048  
   data-arc span      12616 days (34.54 yr)  
   first obs. used      1985-05-15  
   last obs. used      2019-11-29  
   planetary ephem.      DE431  
   SB-pert. ephem.      SB431-N16  
   condition code      0  
   norm. resid. RMS      .43672  
   source      ORB  
   producer      Otto Matic  
   solution date      2020-Feb-22 23:14:47  

Additional Information
 Earth MOID = .972639 au 
 Jupiter MOID = 2.49472 au 
 T_jup = 3.621 
[ show covariance matrix ]

Ephemeris | Orbit Diagram | Orbital Elements | Mission Design | Physical Parameters | Discovery Circumstances | Close-Approach Data ]

Physical Parameter Table
Parameter Symbol Value Units Sigma Reference Notes
absolute magnitude H 14.1   n/a MPO492971  
diameter diameter 3.670 km 0.515 urn:nasa:pds:neowise_diameters_albedos::2.0[mainbelt] (http://adsabs.harvard.edu/abs/2016AJ....152...63N)  
rotation period rot_per 479.321 h n/a LCDB (Rev. 2019-August); Warner et al., 2009 Result based on less than full coverage, so that the period may be wrong by 30 percent or so.
Published Reference List:
[Waszczak, A.; Chang, C.-K.; Ofeck, E.O.; Laher, F.; et al. (2015) Astron. J. 150, A75.]
geometric albedo albedo 0.329   0.132 urn:nasa:pds:neowise_diameters_albedos::2.0[mainbelt] (http://adsabs.harvard.edu/abs/2016AJ....152...63N)  

20862 Jenngoedhart           Discovered 2000 Nov. 1 by the Lincoln Laboratory Near-Earth Asteroid Research Team at Socorro.
Jennifer Goedhart (b. 1986) was awarded second place in the 2004 Intel International Science and Engineering Fair for her microbiology project. She attends the Unity Christian High School, Orange City, Iowa, U.S.A.
NOTE: some special characters may not display properly (any characters within {} are an attempt to place the proper accent above a character)
Reference: 20041226/MPCPages.arcLast Updated: 2004-12-25

[ show close-approach data ]
Alternate Designations
 2000 VY34 = 1985 JB1 = 1998 DF4 
Ephemeris | Orbit Diagram | Orbital Elements | Mission Design | Physical Parameters | Discovery Circumstances | Close-Approach Data ]
ABOUT SSD CREDITS/AWARDS PRIVACY/COPYRIGHT GLOSSARY LINKS
FirstGov 2020-Aug-06 11:02 UT
(server date/time)  
NASA Home Page
Site Manager:   Ryan S. Park
Webmaster  Alan B. Chamberlin